Regional Weather Roundup
Issued by NWS

Home | Current Version | Previous Version | Graphics & Text | Print | Product List | Glossary Off
Versions: 1 2 3 4 5 6 7 8 9 10 11 12 13 14 15 16 17 18 19 20 21 22 23 24 25 26 27 28 29 30 31 32 33 34 35 36 37 38 39 40 41 42 43 44 45 46 47 48 49 50

000
ASUS43 KOAX 261002
RWRNE

WEATHER ROUNDUP FOR NEBRASKA
NATIONAL WEATHER SERVICE OMAHA NE
500 AM CDT SUN OCT 26 2014

NOTES: SATELLITE DATA IS BEING USED TO AUGMENT CLOUD COVER ABOVE
       12000 FEET.
       "FAIR" INDICATES FEW OR NO CLOUDS BELOW 12,000 FEET WITH NO
       SIGNIFICANT WEATHER AND/OR OBSTRUCTIONS TO VISIBILITY.

  * THESE STATIONS DO NOT REPORT WEATHER SUCH AS RAIN...SNOW OR FOG.

NEZ001>004-019>022-054>056-261100-
NEBRASKA PANHANDLE

CITY           SKY/WX    TMP DP  RH WIND       PRES   REMARKS
SCOTTSBLUFF    PTCLDY    41  38  89 CALM      29.84F
ALLIANCE       FOG       40  39  97 SW6       29.83F VSB 1
CHADRON        PTCLDY    53  43  68 SW10      29.76F
KIMBALL        PTCLDY    45  33  63 W10       29.87F
SIDNEY         CLEAR     41  39  93 NW10      29.85F
$$

NEZ057>060-069>072-079>082-261100-
SOUTHWEST NEBRASKA

CITY           SKY/WX    TMP DP  RH WIND       PRES   REMARKS
NORTH PLATTE   CLEAR     41  39  93 E6        29.79F
IMPERIAL       CLEAR     44  42  93 NW5       29.79F
LEXINGTON      CLEAR     45  42  90 E3        29.78F
MCCOOK         CLEAR     47  45  93 NE5       29.77F FOG
OGALLALA         N/A     40  40  98 CALM      29.80F FOG
$$

NEZ005>010-023>029-035>040-094-261100-
NORTH CENTRAL NEBRASKA

CITY           SKY/WX    TMP DP  RH WIND       PRES   REMARKS
VALENTINE      CLEAR     41  36  82 E3        29.80F
AINSWORTH      CLEAR     42  36  79 SE6       29.80F
BROKEN BOW     CLEAR     46  41  82 NE3       29.81F
O`NEILL        CLEAR     52  38  58 SE13      29.83F
ORD            CLEAR     41  38  89 CALM      29.80F
THEDFORD       CLEAR     42  38  85 CALM      29.81F
$$

NEZ041-046>049-061>064-073>077-083>087-261100-
SOUTH CENTRAL NEBRASKA

CITY           SKY/WX    TMP DP  RH WIND       PRES   REMARKS
GRAND ISLAND   CLEAR     54  45  71 SE14      29.81F
AURORA         CLEAR     53  44  71 SE10      29.82F
HASTINGS       CLEAR     53  46  77 SE12      29.80F
HEBRON         CLEAR     54  49  84 E3        29.83F
HOLDREGE       CLEAR     53  50  90 CALM      29.78F
KEARNEY *      CLEAR     48  43  81 E6        29.80F
YORK           CLEAR     54  45  71 SE10      29.84F
$$

NEZ011>018-030>034-042>045-261100-
NORTHEAST NEBRASKA

CITY           SKY/WX    TMP DP  RH WIND       PRES   REMARKS
NORFOLK        CLEAR     50  39  66 SE9       29.86F
ALBION         CLEAR     51  39  63 SE9       29.84F
BLAIR          CLEAR     55  38  54 E9        29.90F
COLUMBUS *     CLEAR     52  39  62 E12       29.87F
FREMONT        CLEAR     55  39  54 E9        29.89F
TEKAMAH        CLEAR     45  39  79 N5        29.92F
WAYNE          CLEAR     49  37  63 E10       29.89F HAZE
$$

NEZ050>053-065>068-078-088>093-261100-
SOUTHEAST NEBRASKA

CITY           SKY/WX    TMP DP  RH WIND       PRES   REMARKS
LINCOLN        CLEAR     58  42  55 SE15      29.87F
OMAHA EPPLEY   CLEAR     55  37  50 SE14      29.91F
BEATRICE       CLEAR     58  48  71 E7        29.85F
FALLS CITY     CLEAR     58  45  62 SE10      29.89F
NEBRASKA CITY  CLEAR     55  37  52 SE7       29.90F
PLATTSMOUTH    CLEAR     54  38  55 E14       29.90F
$$

NEZ044-045-051>053-067-261100-
OMAHA AREA

CITY           SKY/WX    TMP DP  RH WIND       PRES   REMARKS
OMAHA EPPLEY   CLEAR     55  37  50 SE14      29.91F
BLAIR          CLEAR     55  38  54 E9        29.90F
FREMONT        CLEAR     55  39  54 E9        29.89F
OFFUTT AFB     CLEAR     55  42  60 E6        29.90F
PLATTSMOUTH    CLEAR     54  38  55 E14       29.90F
WAHOO          FAIR      52  41  65 SE8       29.88F
$$



USA.gov is the U.S. government's official web portal to all federal, state and local government web resources and services.